| time (UTC) | temp F | wind direction | speed MPH | gust MPH | rain 1hr in | rain 24hr in | rain mn in | humidity % | barometer mb |
| 20260905045944 | 82 | 144 | 3.0 | 7.0 | 0.00 | 0.00 | 0.00 | 74 | 1014.4 |
| 20260905045442 | 82 | 162 | 3.0 | 7.0 | 0.00 | 0.00 | 0.00 | 74 | 1014.4 |
| 20260905044942 | 82 | 147 | 4.0 | 7.0 | 0.00 | 0.00 | 0.00 | 73 | 1014.3 |
| 20260905044443 | 82 | 132 | 4.0 | 8.0 | 0.00 | 0.00 | 0.00 | 73 | 1014.3 |
| 20260905043937 | 82 | 140 | 4.0 | 8.0 | 0.00 | 0.00 | 0.00 | 73 | 1014.3 |
| 20260905043434 | 82 | 167 | 3.0 | 8.0 | 0.00 | 0.00 | 0.00 | 73 | 1014.4 |
| 20260905042934 | 82 | 147 | 4.0 | 7.0 | 0.00 | 0.00 | 0.00 | 73 | 1014.3 |
| 20260905042432 | 83 | 139 | 4.0 | 9.0 | 0.00 | 0.00 | 0.00 | 72 | 1014.4 |
| 20260905041933 | 83 | 161 | 4.0 | 9.0 | 0.00 | 0.00 | 0.00 | 72 | 1014.3 |
| 20260905041432 | 83 | 140 | 4.0 | 7.0 | 0.00 | 0.00 | 0.00 | 72 | 1014.3 |
| 20260905041203 | 83 | 117 | 4.0 | 8.0 | 0.00 | 0.00 | 0.00 | 72 | 1014.3 |
| 20260905040704 | 83 | 164 | 4.0 | 8.0 | 0.00 | 0.00 | 0.00 | 71 | 1014.3 |
| 20260905035933 | 83 | 138 | 4.0 | 8.0 | 0.00 | 0.00 | 0.00 | 71 | 1014.2 |
| 20260905035433 | 83 | 161 | 4.0 | 8.0 | 0.00 | 0.00 | 0.00 | 71 | 1014.2 |
| 20260905034932 | 83 | 150 | 4.0 | 10.0 | 0.00 | 0.00 | 0.00 | 71 | 1014.2 |
| 20260905034429 | 83 | 154 | 4.0 | 10.0 | 0.00 | 0.00 | 0.00 | 71 | 1014.2 |
| 20260905033929 | 83 | 168 | 4.0 | 8.0 | 0.00 | 0.00 | 0.00 | 70 | 1014.2 |
| 20260905033429 | 83 | 148 | 4.0 | 8.0 | 0.00 | 0.00 | 0.00 | 70 | 1014.2 |
| 20260905032927 | 84 | 146 | 4.0 | 8.0 | 0.00 | 0.00 | 0.00 | 70 | 1014.0 |
| 20260905032427 | 84 | 131 | 3.0 | 8.0 | 0.00 | 0.00 | 0.00 | 69 | 1014.0 |
| 20260905031927 | 84 | 143 | 3.0 | 7.0 | 0.00 | 0.00 | 0.00 | 69 | 1014.0 |
| 20260905031426 | 84 | 151 | 3.0 | 7.0 | 0.00 | 0.00 | 0.00 | 69 | 1014.0 |
| 20260905030927 | 84 | 155 | 3.0 | 9.0 | 0.00 | 0.00 | 0.00 | 68 | 1014.0 |
| 20260905030652 | 84 | 151 | 3.0 | 9.0 | 0.00 | 0.00 | 0.00 | 68 | 1013.8 |
| 20260905030146 | 84 | 150 | 4.0 | 9.0 | 0.00 | 0.00 | 0.00 | 68 | 1013.8 |
| 20260905025409 | 84 | 159 | 5.0 | 9.0 | 0.00 | 0.00 | 0.00 | 67 | 1013.7 |
| 20260905024903 | 84 | 123 | 4.0 | 8.0 | 0.00 | 0.00 | 0.00 | 66 | 1013.7 |
| 20260905024356 | 84 | 153 | 3.0 | 7.0 | 0.00 | 0.00 | 0.00 | 66 | 1013.6 |
| 20260905023851 | 84 | 138 | 2.0 | 4.0 | 0.00 | 0.00 | 0.00 | 65 | 1013.7 |
| 20260905023345 | 84 | 137 | 1.0 | 3.0 | 0.00 | 0.00 | 0.00 | 65 | 1013.7 |
| 20260905022838 | 85 | 137 | 1.0 | 3.0 | 0.00 | 0.00 | 0.00 | 65 | 1013.7 |
| 20260905022605 | 85 | 136 | 0.0 | 3.0 | 0.00 | 0.00 | 0.00 | 65 | 1013.5 |
| 20260905021827 | 85 | 142 | 0.0 | 3.0 | 0.00 | 0.00 | 0.00 | 64 | 1013.4 |
| 20260905021321 | 85 | 142 | 1.0 | 4.0 | 0.00 | 0.00 | 0.00 | 64 | 1013.3 |
| 20260905020816 | 85 | 142 | 2.0 | 7.0 | 0.00 | 0.00 | 0.00 | 64 | 1013.2 |
| 20260905020308 | 85 | 140 | 2.0 | 7.0 | 0.00 | 0.00 | 0.00 | 64 | 1013.2 |
| 20260905020034 | 85 | 146 | 3.0 | 7.0 | 0.00 | 0.00 | 0.00 | 64 | 1013.2 |
| 20260905015529 | 85 | 148 | 3.0 | 7.0 | 0.00 | 0.00 | 0.00 | 64 | 1013.3 |
| 20260905014751 | 85 | 155 | 3.0 | 7.0 | 0.00 | 0.00 | 0.00 | 64 | 1013.2 |
| 20260905014246 | 85 | 140 | 3.0 | 7.0 | 0.00 | 0.00 | 0.00 | 64 | 1013.2 |
| 20260905013739 | 85 | 156 | 3.0 | 7.0 | 0.00 | 0.00 | 0.00 | 64 | 1013.1 |
| 20260905013233 | 86 | 138 | 3.0 | 7.0 | 0.00 | 0.00 | 0.00 | 64 | 1013.0 |
| 20260905012727 | 86 | 143 | 3.0 | 8.0 | 0.00 | 0.00 | 0.00 | 64 | 1012.9 |
| 20260905012220 | 86 | 148 | 4.0 | 8.0 | 0.00 | 0.00 | 0.00 | 64 | 1013.0 |
| 20260905011715 | 86 | 151 | 3.0 | 7.0 | 0.00 | 0.00 | 0.00 | 63 | 1012.9 |
| 20260905011209 | 87 | 144 | 4.0 | 8.0 | 0.00 | 0.00 | 0.00 | 63 | 1013.0 |
| 20260905010702 | 87 | 137 | 4.0 | 9.0 | 0.00 | 0.00 | 0.00 | 63 | 1013.0 |
| 20260905010157 | 87 | 145 | 4.0 | 9.0 | 0.00 | 0.00 | 0.00 | 62 | 1012.9 |
| 20260905005650 | 87 | 148 | 4.0 | 8.0 | 0.00 | 0.00 | 0.00 | 62 | 1012.8 |
| 20260905005415 | 88 | 119 | 4.0 | 10.0 | 0.00 | 0.00 | 0.00 | 62 | 1012.8 |
| 20260905004639 | 88 | 157 | 4.0 | 10.0 | 0.00 | 0.00 | 0.00 | 61 | 1012.6 |
| 20260905004133 | 88 | 150 | 6.0 | 12.0 | 0.00 | 0.00 | 0.00 | 60 | 1012.5 |
| 20260905003627 | 89 | 126 | 6.0 | 12.0 | 0.00 | 0.00 | 0.00 | 59 | 1012.4 |
| 20260905003121 | 89 | 138 | 4.0 | 12.0 | 0.00 | 0.00 | 0.00 | 58 | 1012.3 |
| 20260905002615 | 89 | 146 | 4.0 | 10.0 | 0.00 | 0.00 | 0.00 | 58 | 1012.4 |
| 20260905002108 | 89 | 151 | 5.0 | 11.0 | 0.00 | 0.00 | 0.00 | 57 | 1012.5 |
| 20260905001603 | 89 | 190 | 5.0 | 12.0 | 0.00 | 0.00 | 0.00 | 57 | 1012.3 |
| 20260905001056 | 89 | 139 | 5.0 | 12.0 | 0.00 | 0.00 | 0.00 | 56 | 1012.1 |
| 20260905000551 | 90 | 136 | 5.0 | 10.0 | 0.00 | 0.00 | 0.00 | 56 | 1012.1 |
| 20260905000318 | 90 | 162 | 5.0 | 11.0 | 0.00 | 0.00 | 0.00 | 56 | 1012.0 |
| 20260904235539 | 90 | 203 | 6.0 | 11.0 | 0.00 | 0.00 | 0.00 | 56 | 1011.9 |
| 20260904235033 | 90 | 155 | 5.0 | 11.0 | 0.00 | 0.00 | 0.00 | 56 | 1011.8 |
| 20260904234759 | 91 | 148 | 5.0 | 11.0 | 0.00 | 0.00 | 0.00 | 55 | 1011.8 |
| 20260904234021 | 91 | 119 | 5.0 | 11.0 | 0.00 | 0.00 | 0.00 | 54 | 1011.8 |
| 20260904233514 | 91 | 133 | 4.0 | 11.0 | 0.00 | 0.00 | 0.00 | 48 | 1011.8 |
| 20260904233009 | 91 | 152 | 5.0 | 11.0 | 0.00 | 0.00 | 0.00 | 47 | 1011.8 |
| 20260904232502 | 91 | 150 | 6.0 | 11.0 | 0.00 | 0.00 | 0.00 | 47 | 1011.8 |
| 20260904232000 | 91 | 131 | 4.0 | 11.0 | 0.00 | 0.00 | 0.00 | 47 | 1011.8 |
| 20260904231731 | 91 | 143 | 3.0 | 10.0 | 0.00 | 0.00 | 0.00 | 47 | 1012.0 |
| 20260904230959 | 91 | 138 | 3.0 | 10.0 | 0.00 | 0.00 | 0.00 | 46 | 1012.0 |
| 20260904230501 | 91 | 138 | 4.0 | 13.0 | 0.00 | 0.00 | 0.00 | 47 | 1012.0 |
| 20260904225959 | 92 | 153 | 5.0 | 13.0 | 0.00 | 0.00 | 0.00 | 46 | 1012.1 |
| 20260904225732 | 92 | 146 | 5.0 | 11.0 | 0.00 | 0.00 | 0.00 | 47 | 1012.2 |
| 20260904225231 | 92 | 136 | 6.0 | 13.0 | 0.00 | 0.00 | 0.00 | 46 | 1012.1 |
| 20260904224501 | 92 | 244 | 5.0 | 13.0 | 0.00 | 0.00 | 0.00 | 46 | 1012.2 |
| 20260904224002 | 92 | 125 | 4.0 | 12.0 | 0.00 | 0.00 | 0.00 | 46 | 1012.2 |
| 20260904223458 | 92 | 159 | 4.0 | 12.0 | 0.00 | 0.00 | 0.00 | 47 | 1012.3 |
| 20260904223229 | 93 | 143 | 4.0 | 12.0 | 0.00 | 0.00 | 0.00 | 49 | 1012.4 |
| 20260904222728 | 92 | 232 | 3.0 | 11.0 | 0.00 | 0.00 | 0.00 | 49 | 1012.4 |
| 20260904221958 | 92 | 173 | 3.0 | 8.0 | 0.00 | 0.00 | 0.00 | 50 | 1012.3 |
| 20260904221459 | 92 | 175 | 4.0 | 10.0 | 0.00 | 0.00 | 0.00 | 51 | 1012.4 |
| 20260904220954 | 92 | 116 | 4.0 | 10.0 | 0.00 | 0.00 | 0.00 | 51 | 1012.4 |
| 20260904220455 | 92 | 182 | 5.0 | 11.0 | 0.00 | 0.00 | 0.00 | 50 | 1012.5 |
| 20260904215954 | 92 | 135 | 5.0 | 11.0 | 0.00 | 0.00 | 0.00 | 50 | 1012.5 |
| 20260904215453 | 92 | 165 | 6.0 | 12.0 | 0.00 | 0.00 | 0.00 | 50 | 1012.5 |
| 20260904214953 | 92 | 159 | 5.0 | 12.0 | 0.00 | 0.00 | 0.00 | 50 | 1012.5 |
| 20260904214500 | 92 | 132 | 4.0 | 10.0 | 0.00 | 0.00 | 0.00 | 53 | 1012.8 |
| 20260904214455 | 92 | 144 | 5.0 | 10.0 | 0.00 | 0.00 | 0.00 | 51 | 1012.5 |
| 20260904213453 | 92 | 155 | 5.0 | 10.0 | 0.00 | 0.00 | 0.00 | 54 | 1012.9 |
| 20260904212955 | 92 | 180 | 5.0 | 11.0 | 0.00 | 0.00 | 0.00 | 56 | 1013.0 |
| 20260904212455 | 92 | 129 | 4.0 | 11.0 | 0.00 | 0.00 | 0.00 | 55 | 1013.2 |
| 20260904211954 | 92 | 145 | 3.0 | 9.0 | 0.00 | 0.00 | 0.00 | 55 | 1013.1 |
| 20260904211454 | 92 | 136 | 3.0 | 8.0 | 0.00 | 0.00 | 0.00 | 54 | 1013.2 |
| 20260904210954 | 92 | 121 | 4.0 | 11.0 | 0.00 | 0.00 | 0.00 | 54 | 1013.3 |
| 20260904210724 | 91 | 178 | 4.0 | 11.0 | 0.00 | 0.00 | 0.00 | 53 | 1013.3 |
| 20260904205955 | 91 | 188 | 5.0 | 11.0 | 0.00 | 0.00 | 0.00 | 52 | 1013.3 |
| 20260904205454 | 90 | 143 | 5.0 | 11.0 | 0.00 | 0.00 | 0.00 | 53 | 1013.3 |
| 20260904204953 | 90 | 148 | 6.0 | 12.0 | 0.00 | 0.00 | 0.00 | 52 | 1013.3 |
| 20260904204453 | 90 | 154 | 5.0 | 12.0 | 0.00 | 0.00 | 0.00 | 54 | 1013.3 |
| 20260904204217 | 90 | 123 | 5.0 | 12.0 | 0.00 | 0.00 | 0.00 | 54 | 1013.5 |
| 20260904203439 | 90 | 129 | 5.0 | 12.0 | 0.00 | 0.00 | 0.00 | 54 | 1013.6 |
| 20260904202933 | 90 | 142 | 5.0 | 10.0 | 0.00 | 0.00 | 0.00 | 55 | 1013.4 |
| 20260904202427 | 90 | 110 | 5.0 | 10.0 | 0.00 | 0.00 | 0.00 | 54 | 1013.5 |
| 20260904201922 | 91 | 141 | 5.0 | 11.0 | 0.00 | 0.00 | 0.00 | 54 | 1013.7 |
| 20260904201417 | 91 | 142 | 4.0 | 11.0 | 0.00 | 0.00 | 0.00 | 55 | 1013.6 |
| 20260904200917 | 92 | 171 | 3.0 | 9.0 | 0.00 | 0.00 | 0.00 | 56 | 1013.7 |
| 20260904200417 | 92 | 139 | 3.0 | 9.0 | 0.00 | 0.00 | 0.00 | 58 | 1013.8 |
| 20260904195915 | 92 | 149 | 4.0 | 9.0 | 0.00 | 0.00 | 0.00 | 58 | 1013.8 |
| 20260904195416 | 93 | 129 | 3.0 | 9.0 | 0.00 | 0.00 | 0.00 | 58 | 1013.8 |
| 20260904194914 | 93 | 128 | 3.0 | 8.0 | 0.00 | 0.00 | 0.00 | 59 | 1013.8 |
| 20260904194644 | 93 | 120 | 3.0 | 8.0 | 0.00 | 0.00 | 0.00 | 57 | 1013.9 |
| 20260904193914 | 94 | 184 | 4.0 | 9.0 | 0.00 | 0.00 | 0.00 | 59 | 1013.9 |
| 20260904193414 | 93 | 146 | 5.0 | 9.0 | 0.00 | 0.00 | 0.00 | 58 | 1013.9 |
| 20260904192913 | 93 | 142 | 4.0 | 10.0 | 0.00 | 0.00 | 0.00 | 59 | 1014.0 |
| 20260904192412 | 92 | 100 | 4.0 | 11.0 | 0.00 | 0.00 | 0.00 | 62 | 1014.0 |
| 20260904191911 | 91 | 124 | 4.0 | 11.0 | 0.00 | 0.00 | 0.00 | 62 | 1014.0 |
| 20260904191412 | 91 | 169 | 4.0 | 10.0 | 0.00 | 0.00 | 0.00 | 62 | 1014.2 |
| 20260904190913 | 90 | 136 | 5.0 | 14.0 | 0.00 | 0.00 | 0.00 | 62 | 1014.5 |
| 20260904190410 | 90 | 132 | 5.0 | 14.0 | 0.00 | 0.00 | 0.00 | 63 | 1014.5 |
| 20260904185909 | 89 | 134 | 3.0 | 9.0 | 0.00 | 0.00 | 0.00 | 67 | 1014.4 |
| 20260904185409 | 89 | 164 | 3.0 | 8.0 | 0.00 | 0.00 | 0.00 | 68 | 1014.4 |
| 20260904184910 | 88 | 133 | 4.0 | 11.0 | 0.00 | 0.00 | 0.00 | 70 | 1014.5 |
| 20260904184404 | 87 | 133 | 4.0 | 11.0 | 0.00 | 0.00 | 0.00 | 69 | 1014.8 |
| 20260904184129 | 87 | 146 | 3.0 | 10.0 | 0.00 | 0.00 | 0.00 | 70 | 1015.0 |
| 20260904183351 | 87 | 149 | 2.0 | 7.0 | 0.00 | 0.00 | 0.00 | 70 | 1014.9 |
| 20260904183116 | 87 | 149 | 3.0 | 8.0 | 0.00 | 0.00 | 0.00 | 70 | 1015.0 |
| 20260904182340 | 87 | 96 | 3.0 | 8.0 | 0.00 | 0.00 | 0.00 | 71 | 1015.0 |
| 20260904181834 | 87 | 149 | 2.0 | 7.0 | 0.00 | 0.00 | 0.00 | 71 | 1014.8 |
| 20260904181328 | 87 | 109 | 2.0 | 8.0 | 0.00 | 0.00 | 0.00 | 70 | 1014.9 |
| 20260904180828 | 87 | 113 | 2.0 | 8.0 | 0.00 | 0.00 | 0.00 | 71 | 1014.9 |
| 20260904180328 | 87 | 165 | 2.0 | 8.0 | 0.00 | 0.00 | 0.00 | 70 | 1015.0 |
| 20260904175834 | 86 | 159 | 2.0 | 6.0 | 0.00 | 0.00 | 0.00 | 71 | 1015.1 |
| 20260904175828 | 86 | 139 | 3.0 | 8.0 | 0.00 | 0.00 | 0.00 | 70 | 1015.1 |
| 20260904174822 | 86 | 138 | 3.0 | 7.0 | 0.00 | 0.00 | 0.00 | 71 | 1015.2 |
| 20260904174322 | 86 | 138 | 3.0 | 7.0 | 0.00 | 0.00 | 0.00 | 71 | 1015.3 |
| 20260904173821 | 86 | 155 | 2.0 | 9.0 | 0.00 | 0.00 | 0.00 | 71 | 1015.3 |
| 20260904173321 | 86 | 171 | 1.0 | 9.0 | 0.00 | 0.00 | 0.00 | 72 | 1015.3 |
| 20260904172819 | 85 | 224 | 2.0 | 8.0 | 0.00 | 0.00 | 0.00 | 73 | 1015.4 |
| 20260904172437 | 85 | 166 | 1.0 | 6.0 | 0.00 | 0.00 | 0.00 | 74 | 1015.5 |
| 20260904172324 | 85 | 180 | 3.0 | 9.0 | 0.00 | 0.00 | 0.00 | 73 | 1015.4 |
| 20260904172053 | 85 | 150 | 2.0 | 9.0 | 0.00 | 0.00 | 0.00 | 72 | 1015.3 |
| 20260904170815 | 85 | 156 | 2.0 | 7.0 | 0.00 | 0.00 | 0.00 | 75 | 1015.4 |
| 20260904170316 | 85 | 126 | 1.0 | 7.0 | 0.00 | 0.00 | 0.00 | 75 | 1015.4 |
| 20260904165815 | 85 | 184 | 1.0 | 6.0 | 0.00 | 0.00 | 0.00 | 76 | 1015.4 |
| 20260904165314 | 84 | 182 | 2.0 | 6.0 | 0.00 | 0.00 | 0.00 | 76 | 1015.4 |
| 20260904164812 | 84 | 167 | 2.0 | 6.0 | 0.00 | 0.00 | 0.00 | 76 | 1015.4 |
| 20260904164309 | 84 | 153 | 1.0 | 5.0 | 0.00 | 0.00 | 0.00 | 78 | 1015.2 |
| 20260904163807 | 84 | 170 | 1.0 | 5.0 | 0.00 | 0.00 | 0.00 | 78 | 1015.2 |
| 20260904163537 | 84 | 168 | 1.0 | 5.0 | 0.00 | 0.00 | 0.00 | 79 | 1015.3 |
| 20260904162800 | 83 | 144 | 1.0 | 6.0 | 0.00 | 0.00 | 0.00 | 79 | 1015.2 |
| 20260904162253 | 83 | 144 | 1.0 | 6.0 | 0.00 | 0.00 | 0.00 | 79 | 1015.3 |
| 20260904161747 | 83 | 200 | 1.0 | 6.0 | 0.00 | 0.00 | 0.00 | 80 | 1015.3 |
| 20260904161241 | 83 | 182 | 1.0 | 6.0 | 0.00 | 0.00 | 0.00 | 80 | 1015.3 |
| 20260904160735 | 83 | 190 | 1.0 | 4.0 | 0.00 | 0.00 | 0.00 | 81 | 1015.2 |
| 20260904160230 | 82 | 191 | 2.0 | 4.0 | 0.00 | 0.00 | 0.00 | 81 | 1015.0 |
| 20260904155724 | 82 | 167 | 2.0 | 6.0 | 0.00 | 0.00 | 0.00 | 82 | 1015.1 |
| 20260904155449 | 82 | 167 | 2.0 | 6.0 | 0.00 | 0.00 | 0.00 | 82 | 1015.0 |
| 20260904154943 | 82 | 176 | 1.0 | 5.0 | 0.00 | 0.00 | 0.00 | 82 | 1015.2 |
| 20260904154206 | 82 | 184 | 1.0 | 3.0 | 0.00 | 0.00 | 0.00 | 82 | 1015.3 |
| 20260904153700 | 82 | 184 | 1.0 | 7.0 | 0.00 | 0.00 | 0.00 | 82 | 1015.2 |
| 20260904153154 | 82 | 185 | 2.0 | 7.0 | 0.00 | 0.00 | 0.00 | 82 | 1015.2 |
| 20260904152648 | 81 | 173 | 1.0 | 5.0 | 0.00 | 0.00 | 0.00 | 82 | 1015.1 |
| 20260904152142 | 81 | 173 | 1.0 | 5.0 | 0.00 | 0.00 | 0.00 | 82 | 1015.1 |
| 20260904151638 | 81 | 236 | 1.0 | 6.0 | 0.00 | 0.00 | 0.00 | 83 | 1015.0 |
| 20260904151139 | 81 | 181 | 1.0 | 6.0 | 0.00 | 0.00 | 0.00 | 83 | 1015.1 |
| 20260904150638 | 81 | 201 | 1.0 | 3.0 | 0.00 | 0.00 | 0.00 | 83 | 1015.1 |
| 20260904150139 | 81 | 201 | 1.0 | 5.0 | 0.00 | 0.00 | 0.00 | 83 | 1015.1 |
| 20260904145908 | 81 | 203 | 0.0 | 5.0 | 0.00 | 0.00 | 0.00 | 83 | 1015.2 |
| 20260904145137 | 81 | 177 | 0.0 | 3.0 | 0.00 | 0.00 | 0.00 | 83 | 1015.1 |
| 20260904144637 | 81 | 176 | 1.0 | 3.0 | 0.00 | 0.00 | 0.00 | 83 | 1015.2 |
| 20260904144136 | 81 | 177 | 0.0 | 3.0 | 0.00 | 0.00 | 0.00 | 83 | 1015.3 |
| 20260904143637 | 81 | 189 | 1.0 | 3.0 | 0.00 | 0.00 | 0.00 | 84 | 1015.2 |
| 20260904143138 | 81 | 189 | 1.0 | 4.0 | 0.00 | 0.00 | 0.00 | 84 | 1015.2 |
| 20260904142638 | 81 | 190 | 1.0 | 4.0 | 0.00 | 0.00 | 0.00 | 84 | 1015.2 |
| 20260904142136 | 81 | 182 | 1.0 | 6.0 | 0.00 | 0.00 | 0.00 | 84 | 1015.2 |
| 20260904141637 | 81 | 182 | 1.0 | 6.0 | 0.00 | 0.00 | 0.00 | 84 | 1015.1 |
| 20260904141138 | 80 | 182 | 2.0 | 6.0 | 0.00 | 0.00 | 0.00 | 84 | 1015.2 |
| 20260904140633 | 80 | 175 | 2.0 | 6.0 | 0.00 | 0.00 | 0.00 | 85 | 1015.1 |
| 20260904140404 | 80 | 173 | 2.0 | 6.0 | 0.00 | 0.00 | 0.00 | 85 | 1015.1 |
| 20260904135633 | 80 | 171 | 1.0 | 6.0 | 0.00 | 0.00 | 0.00 | 85 | 1015.0 |
| 20260904135132 | 80 | 167 | 1.0 | 4.0 | 0.00 | 0.00 | 0.00 | 85 | 1015.0 |
| 20260904134634 | 80 | 167 | 1.0 | 4.0 | 0.00 | 0.00 | 0.00 | 85 | 1015.0 |
| 20260904134133 | 80 | 167 | 1.0 | 6.0 | 0.00 | 0.00 | 0.00 | 85 | 1015.0 |
| 20260904133634 | 80 | 166 | 0.0 | 6.0 | 0.00 | 0.00 | 0.00 | 85 | 1014.9 |
| 20260904133133 | 80 | 155 | 0.0 | 3.0 | 0.00 | 0.00 | 0.00 | 85 | 1014.8 |
| 20260904132633 | 80 | 155 | 1.0 | 3.0 | 0.00 | 0.00 | 0.00 | 85 | 1014.9 |
| 20260904132130 | 80 | 154 | 1.0 | 3.0 | 0.00 | 0.00 | 0.00 | 85 | 1014.8 |
| 20260904131629 | 80 | 154 | 1.0 | 3.0 | 0.00 | 0.00 | 0.00 | 85 | 1014.8 |
| 20260904131128 | 80 | 154 | 1.0 | 5.0 | 0.00 | 0.00 | 0.00 | 85 | 1014.8 |
| 20260904130628 | 80 | 154 | 2.0 | 5.0 | 0.00 | 0.00 | 0.00 | 85 | 1014.8 |
| 20260904130130 | 80 | 155 | 2.0 | 5.0 | 0.00 | 0.00 | 0.00 | 85 | 1014.8 |
| 20260904125859 | 80 | 155 | 2.0 | 5.0 | 0.00 | 0.00 | 0.00 | 85 | 1014.9 |
| 20260904125128 | 80 | 155 | 2.0 | 5.0 | 0.00 | 0.00 | 0.00 | 85 | 1014.8 |
| 20260904124628 | 80 | 148 | 2.0 | 5.0 | 0.00 | 0.00 | 0.00 | 85 | 1014.6 |
| 20260904124400 | 80 | 148 | 2.0 | 7.0 | 0.00 | 0.00 | 0.00 | 85 | 1014.6 |
| 20260904123629 | 80 | 147 | 3.0 | 7.0 | 0.00 | 0.00 | 0.00 | 85 | 1014.5 |
| 20260904123122 | 80 | 135 | 3.0 | 9.0 | 0.00 | 0.00 | 0.00 | 85 | 1014.3 |
| 20260904122847 | 80 | 170 | 3.0 | 9.0 | 0.00 | 0.00 | 0.00 | 85 | 1014.4 |
| 20260904122109 | 80 | 153 | 3.0 | 7.0 | 0.00 | 0.00 | 0.00 | 85 | 1014.3 |
| 20260904121603 | 80 | 156 | 3.0 | 8.0 | 0.00 | 0.00 | 0.00 | 85 | 1014.2 |
| 20260904121057 | 80 | 157 | 4.0 | 8.0 | 0.00 | 0.00 | 0.00 | 85 | 1014.2 |
| 20260904120552 | 80 | 150 | 3.0 | 8.0 | 0.00 | 0.00 | 0.00 | 85 | 1014.0 |
| 20260904120045 | 80 | 137 | 4.0 | 9.0 | 0.00 | 0.00 | 0.00 | 85 | 1013.9 |
| 20260904115539 | 80 | 138 | 5.0 | 10.0 | 0.00 | 0.00 | 0.00 | 85 | 1013.9 |
| 20260904115032 | 80 | 142 | 5.0 | 10.0 | 0.00 | 0.00 | 0.00 | 85 | 1013.9 |
| 20260904114527 | 80 | 148 | 5.0 | 10.0 | 0.00 | 0.00 | 0.00 | 85 | 1013.9 |
| 20260904114021 | 80 | 156 | 4.0 | 9.0 | 0.00 | 0.00 | 0.00 | 84 | 1014.0 |
| 20260904113515 | 80 | 159 | 4.0 | 9.0 | 0.00 | 0.00 | 0.00 | 84 | 1013.9 |
| 20260904113009 | 80 | 148 | 4.0 | 9.0 | 0.00 | 0.00 | 0.00 | 84 | 1014.0 |
| 20260904112503 | 80 | 150 | 4.0 | 8.0 | 0.00 | 0.00 | 0.00 | 84 | 1014.0 |
| 20260904111957 | 80 | 155 | 3.0 | 7.0 | 0.00 | 0.00 | 0.00 | 84 | 1013.8 |
| 20260904111451 | 80 | 141 | 3.0 | 7.0 | 0.00 | 0.00 | 0.00 | 84 | 1013.8 |
| 20260904110945 | 80 | 140 | 3.0 | 8.0 | 0.00 | 0.00 | 0.00 | 84 | 1013.7 |
| 20260904110439 | 80 | 150 | 4.0 | 8.0 | 0.00 | 0.00 | 0.00 | 84 | 1013.7 |
| 20260904105932 | 80 | 130 | 3.0 | 8.0 | 0.00 | 0.00 | 0.00 | 84 | 1013.6 |
| 20260904105426 | 80 | 151 | 3.0 | 8.0 | 0.00 | 0.00 | 0.00 | 84 | 1013.6 |
| 20260904105152 | 80 | 153 | 3.0 | 8.0 | 0.00 | 0.00 | 0.00 | 84 | 1013.6 |
| 20260904104416 | 80 | 150 | 2.0 | 7.0 | 0.00 | 0.00 | 0.00 | 84 | 1013.5 |
| 20260904104140 | 80 | 138 | 2.0 | 5.0 | 0.00 | 0.00 | 0.00 | 83 | 1013.4 |
| 20260904103635 | 80 | 140 | 3.0 | 7.0 | 0.00 | 0.00 | 0.00 | 83 | 1013.4 |
| 20260904102857 | 80 | 134 | 2.0 | 7.0 | 0.00 | 0.00 | 0.00 | 83 | 1013.4 |
| 20260904102350 | 80 | 144 | 2.0 | 5.0 | 0.00 | 0.00 | 0.00 | 83 | 1013.4 |
| 20260904101844 | 80 | 143 | 2.0 | 5.0 | 0.00 | 0.00 | 0.00 | 83 | 1013.4 |
| 20260904101339 | 80 | 148 | 2.0 | 6.0 | 0.00 | 0.00 | 0.00 | 83 | 1013.4 |
| 20260904101103 | 80 | 148 | 2.0 | 6.0 | 0.00 | 0.00 | 0.00 | 83 | 1013.3 |
| 20260904100327 | 80 | 151 | 2.0 | 5.0 | 0.00 | 0.00 | 0.00 | 83 | 1013.4 |
| 20260904095821 | 80 | 153 | 2.0 | 6.0 | 0.00 | 0.00 | 0.00 | 83 | 1013.4 |
| 20260904095314 | 80 | 158 | 2.0 | 5.0 | 0.00 | 0.00 | 0.00 | 83 | 1013.3 |
| 20260904094809 | 80 | 159 | 2.0 | 5.0 | 0.00 | 0.00 | 0.00 | 83 | 1013.3 |
| 20260904094303 | 80 | 156 | 2.0 | 5.0 | 0.00 | 0.00 | 0.00 | 83 | 1013.3 |
| 20260904093757 | 80 | 159 | 2.0 | 5.0 | 0.00 | 0.00 | 0.00 | 82 | 1013.3 |
| 20260904093251 | 80 | 158 | 2.0 | 5.0 | 0.00 | 0.00 | 0.00 | 82 | 1013.3 |
| 20260904092744 | 80 | 158 | 2.0 | 5.0 | 0.00 | 0.00 | 0.00 | 82 | 1013.2 |
| 20260904092239 | 80 | 160 | 2.0 | 6.0 | 0.00 | 0.00 | 0.00 | 82 | 1013.3 |
| 20260904091733 | 80 | 160 | 2.0 | 6.0 | 0.00 | 0.00 | 0.00 | 82 | 1013.3 |
| 20260904091227 | 80 | 156 | 3.0 | 7.0 | 0.00 | 0.00 | 0.00 | 82 | 1013.1 |
| 20260904090721 | 80 | 159 | 3.0 | 7.0 | 0.00 | 0.00 | 0.00 | 82 | 1013.1 |
| 20260904090215 | 80 | 177 | 2.0 | 6.0 | 0.00 | 0.00 | 0.00 | 82 | 1013.2 |
| 20260904085708 | 80 | 169 | 1.0 | 4.0 | 0.00 | 0.00 | 0.00 | 82 | 1013.1 |
| 20260904085203 | 80 | 167 | 1.0 | 5.0 | 0.00 | 0.00 | 0.00 | 82 | 1013.2 |
| 20260904084657 | 80 | 165 | 2.0 | 5.0 | 0.00 | 0.00 | 0.00 | 82 | 1013.2 |
| 20260904084150 | 80 | 167 | 2.0 | 6.0 | 0.00 | 0.00 | 0.00 | 82 | 1013.2 |
| 20260904083644 | 81 | 179 | 2.0 | 6.0 | 0.00 | 0.00 | 0.00 | 82 | 1013.3 |
| 20260904083139 | 81 | 175 | 2.0 | 4.0 | 0.00 | 0.00 | 0.00 | 82 | 1013.4 |
| 20260904082639 | 81 | 177 | 2.0 | 6.0 | 0.00 | 0.00 | 0.00 | 82 | 1013.4 |
| 20260904082139 | 81 | 181 | 2.0 | 6.0 | 0.00 | 0.00 | 0.00 | 81 | 1013.4 |
| 20260904081639 | 81 | 153 | 3.0 | 7.0 | 0.00 | 0.00 | 0.00 | 81 | 1013.3 |
| 20260904081409 | 81 | 154 | 2.0 | 7.0 | 0.00 | 0.00 | 0.00 | 81 | 1013.3 |
| 20260904080639 | 81 | 150 | 3.0 | 8.0 | 0.00 | 0.00 | 0.00 | 81 | 1013.2 |
| 20260904080139 | 81 | 174 | 4.0 | 10.0 | 0.00 | 0.00 | 0.00 | 81 | 1013.2 |
| 20260904075639 | 81 | 163 | 3.0 | 10.0 | 0.00 | 0.00 | 0.00 | 81 | 1013.2 |
| 20260904075137 | 81 | 181 | 3.0 | 8.0 | 0.00 | 0.00 | 0.00 | 81 | 1013.3 |
| 20260904074633 | 81 | 142 | 3.0 | 7.0 | 0.00 | 0.00 | 0.00 | 81 | 1013.4 |
| 20260904074131 | 81 | 156 | 3.0 | 7.0 | 0.00 | 0.00 | 0.00 | 81 | 1013.3 |
| 20260904073633 | 81 | 157 | 3.0 | 8.0 | 0.00 | 0.00 | 0.00 | 81 | 1013.4 |
| 20260904073132 | 81 | 165 | 4.0 | 11.0 | 0.00 | 0.00 | 0.00 | 81 | 1013.5 |
| 20260904072630 | 81 | 150 | 4.0 | 11.0 | 0.00 | 0.00 | 0.00 | 81 | 1013.5 |
| 20260904072130 | 81 | 171 | 3.0 | 9.0 | 0.00 | 0.00 | 0.00 | 81 | 1013.4 |
| 20260904071630 | 81 | 181 | 4.0 | 10.0 | 0.00 | 0.00 | 0.00 | 81 | 1013.4 |
| 20260904071130 | 81 | 154 | 4.0 | 10.0 | 0.00 | 0.00 | 0.00 | 81 | 1013.6 |
| 20260904070631 | 81 | 142 | 3.0 | 7.0 | 0.00 | 0.00 | 0.00 | 80 | 1013.6 |
| 20260904070131 | 81 | 150 | 3.0 | 7.0 | 0.00 | 0.00 | 0.00 | 80 | 1013.6 |
| 20260904065625 | 81 | 140 | 3.0 | 7.0 | 0.00 | 0.00 | 0.00 | 80 | 1013.7 |
| 20260904065351 | 81 | 152 | 3.0 | 9.0 | 0.00 | 0.00 | 0.00 | 80 | 1013.8 |
| 20260904064843 | 81 | 125 | 3.0 | 9.0 | 0.00 | 0.00 | 0.00 | 79 | 1013.8 |
| 20260904064106 | 81 | 168 | 3.0 | 7.0 | 0.00 | 0.00 | 0.00 | 79 | 1013.9 |
| 20260904063601 | 81 | 194 | 4.0 | 8.0 | 0.00 | 0.00 | 0.00 | 79 | 1013.8 |
| 20260904063101 | 81 | 155 | 4.0 | 8.0 | 0.00 | 0.00 | 0.00 | 79 | 1013.7 |
| 20260904062600 | 81 | 159 | 3.0 | 9.0 | 0.00 | 0.00 | 0.00 | 79 | 1013.7 |
| 20260904062101 | 81 | 165 | 4.0 | 11.0 | 0.00 | 0.00 | 0.00 | 78 | 1013.6 |
| 20260904061601 | 81 | 159 | 4.0 | 11.0 | 0.00 | 0.00 | 0.00 | 78 | 1013.6 |
| 20260904061100 | 81 | 172 | 4.0 | 9.0 | 0.00 | 0.00 | 0.00 | 78 | 1013.7 |
| 20260904060600 | 81 | 169 | 4.0 | 9.0 | 0.00 | 0.00 | 0.00 | 78 | 1013.7 |
| 20260904060100 | 81 | 158 | 4.0 | 9.0 | 0.00 | 0.00 | 0.00 | 78 | 1013.7 |
| 20260904055600 | 81 | 140 | 4.0 | 9.0 | 0.00 | 0.00 | 0.00 | 78 | 1013.7 |
| 20260904055100 | 81 | 164 | 4.0 | 10.0 | 0.00 | 0.00 | 0.00 | 77 | 1013.8 |
| 20260904054601 | 81 | 178 | 4.0 | 10.0 | 0.00 | 0.00 | 0.00 | 77 | 1013.7 |
| 20260904054101 | 81 | 168 | 4.0 | 9.0 | 0.00 | 0.00 | 0.00 | 77 | 1013.5 |
| 20260904053601 | 81 | 145 | 4.0 | 11.0 | 0.00 | 0.00 | 0.00 | 77 | 1013.5 |
| 20260904053330 | 81 | 142 | 4.0 | 11.0 | 0.00 | 0.00 | 0.00 | 77 | 1013.5 |
| 20260904052600 | 81 | 162 | 4.0 | 10.0 | 0.00 | 0.00 | 0.00 | 77 | 1013.4 |
| 20260904052059 | 81 | 179 | 5.0 | 10.0 | 0.00 | 0.00 | 0.00 | 77 | 1013.4 |
| 20260904051833 | 81 | 151 | 5.0 | 10.0 | 0.00 | 0.00 | 0.00 | 77 | 1013.4 |
| 20260904051058 | 81 | 127 | 5.0 | 10.0 | 0.00 | 0.00 | 0.00 | 77 | 1013.4 |
| 20260904050557 | 81 | 142 | 5.0 | 10.0 | 0.00 | 0.00 | 0.00 | 77 | 1013.4 |